Tracking 20037 objects as of 21-Nov-2019
Live streaming from Space Station
objects crossing your sky now

COSMOS 1275 DEB

Track COSMOS 1275 DEB now!
10-day predictions


NORAD ID: 12705
Int'l Code: 1981-053AZ
Perigee: 888.3 km
Apogee: 928.3 km
Inclination: 82.9 °
Period: 103.0 minutes
Semi major axis: 7279 km
RCS: 0.2491 m2 (medium)
Launch date: June 4, 1981
Source: Commonwealth of Independent States (former USSR) (CIS)
Launch site: PLESETSK MISSILE AND SPACE COMPLEX (PKMTR)

Note: This is SATELLITE DEBRIS
aabbcc
Your satellite tracking list
Your tracking list is empty




NASA's NSSDC Master Catalog

Two Line Element Set (TLE):
1 12705U 81053AZ  19324.58616441  .00000308  00000-0  20609-3 0  9997
2 12705  82.8891 295.0190 0027529 350.4661 127.2020 13.97874681938322
Source of the keplerian elements: AFSPC